Weather History for KRFD - March, 2014

Change the Weather History Date:

Monday, March 17, 2014

  Actual Average Record
Temperature  
Mean Temperature 26 °F 38 °F  
Max Temperature 38 °F 47 °F 82 °F (2012)
Min Temperature 14 °F 28 °F -3 °F (1941)
Degree Days  
Heating Degree Days 39 27  
Month to date heating degree days 684 522  
Since 1 July heating degree days 6576 5524  
Cooling Degree Days 0 0  
Month to date cooling degree days 0 0  
Year to date cooling degree days 0 0  
Moisture  
Dew Point 15 °F    
Average Humidity 63    
Maximum Humidity 85    
Minimum Humidity 41    
Precipitation  
Precipitation 0.00 in 0.08 in 0.62 in (1919)
Month to date precipitation 0.58 1.14  
Year to date precipitation 4.32 3.92  
Snow  
Snow 0.00 in 0.10 in 4.00 in (1984)
Month to date snowfall 8.1 3.2  
Since 1 July snowfall 55.6 34.2  
Snow Depth 0.00 in    
Sea Level Pressure  
Sea Level Pressure 29.96 in    
Wind  
Wind Speed 9 mph (SSE)    
Max Wind Speed 18 mph    
Max Gust Speed 23 mph    
Visibility 10 miles    
Events      
T = Trace of Precipitation, MM = Missing Value Source: NWS Daily Summary

Daily Weather History Graph

Daily Weather History Graph

Search for Another Location

Airport or City:

Trip Planner

Search our weather history database for the weather conditions in past years. The results will help you decide how hot, cold, wet, or windy it might be!

Date:

Astronomy

Mar. 17, 2014 Rise Set
Actual Time 7:04 AM CDT 7:05 PM CDT
Civil Twilight 6:36 AM CDT 7:33 PM CDT
Nautical Twilight 6:04 AM CDT 8:05 PM CDT
Astronomical Twilight 5:31 AM CDT 8:39 PM CDT
Moon 8:23 PM CDT (3/17) 7:19 AM CDT (3/17)
Length of Visible Light 12h 56m
Length of Day
12h 00m
Full, 99% of the Moon is Illuminated
Mar 17
Full
Mar 23
Last Quarter
Mar 30
New
Apr 7
First Quarter
Apr 15
Full

Hourly Weather History & Observations

Time (CDT) Temp. Windchill Dew Point Humidity Pressure Visibility Wind Dir Wind Speed Gust Speed Precip Events Conditions
12:54 AM 16.0 °F 8.8 °F 8.1 °F 71% 30.18 in 10.0 mi ENE 4.6 mph - N/A   Partly Cloudy
1:54 AM 15.1 °F 7.7 °F 8.1 °F 74% 30.15 in 10.0 mi NNE 4.6 mph - N/A   Partly Cloudy
2:54 AM 15.1 °F 7.7 °F 8.1 °F 74% 30.13 in 10.0 mi NNE 4.6 mph - N/A   Clear
3:54 AM 15.1 °F - 9.0 °F 77% 30.09 in 10.0 mi Calm Calm - N/A   Partly Cloudy
4:54 AM 15.1 °F - 9.0 °F 77% 30.08 in 10.0 mi Calm Calm - N/A   Partly Cloudy
5:54 AM 14.0 °F - 9.0 °F 80% 30.05 in 10.0 mi Calm Calm - N/A   Scattered Clouds
6:54 AM 15.1 °F 9.4 °F 10.0 °F 80% 30.05 in 10.0 mi ESE 3.5 mph - N/A   Scattered Clouds
7:54 AM 17.1 °F 7.6 °F 12.0 °F 81% 30.02 in 10.0 mi SE 6.9 mph - N/A   Mostly Cloudy
8:54 AM 21.0 °F 10.6 °F 15.1 °F 78% 30.02 in 10.0 mi SE 9.2 mph - N/A   Scattered Clouds
9:54 AM 25.0 °F 14.2 °F 12.0 °F 58% 30.02 in 10.0 mi SE 11.5 mph - N/A   Partly Cloudy
10:54 AM 28.9 °F 19.8 °F 9.0 °F 43% 30.00 in 10.0 mi SSE 10.4 mph - N/A   Partly Cloudy
11:54 AM 30.9 °F 21.7 °F 10.9 °F 43% 29.97 in 10.0 mi South 11.5 mph - N/A   Partly Cloudy
12:54 PM 33.1 °F 23.4 °F 12.9 °F 43% 29.92 in 10.0 mi SSE 13.8 mph - N/A   Partly Cloudy
1:54 PM 35.1 °F 26.4 °F 15.1 °F 44% 29.89 in 10.0 mi South 12.7 mph - N/A   Partly Cloudy
2:54 PM 35.1 °F 26.9 °F 17.1 °F 48% 29.85 in 10.0 mi South 11.5 mph - N/A   Scattered Clouds
3:54 PM 37.0 °F 27.7 °F 19.0 °F 48% 29.84 in 10.0 mi South 16.1 mph - N/A   Scattered Clouds
4:54 PM 37.9 °F 28.5 °F 19.9 °F 48% 29.81 in 10.0 mi South 17.3 mph - N/A   Mostly Cloudy
5:54 PM 36.0 °F 26.7 °F 21.0 °F 55% 29.80 in 10.0 mi South 15.0 mph - N/A   Mostly Cloudy
6:54 PM 34.0 °F 26.6 °F 23.0 °F 64% 29.81 in 10.0 mi South 9.2 mph - N/A   Scattered Clouds
7:54 PM 33.1 °F 24.9 °F 24.1 °F 70% 29.80 in 10.0 mi SSE 10.4 mph - N/A   Mostly Cloudy
8:54 PM 32.0 °F 23.0 °F 25.0 °F 75% 29.81 in 10.0 mi SSE 11.5 mph - N/A   Scattered Clouds
9:54 PM 33.1 °F 24.9 °F 26.1 °F 75% 29.84 in 10.0 mi SSE 10.4 mph - N/A   Overcast
10:54 PM 30.9 °F 22.8 °F 26.1 °F 82% 29.85 in 10.0 mi SSE 9.2 mph - N/A   Mostly Cloudy
11:54 PM 30.9 °F 22.8 °F 26.1 °F 82% 29.84 in 10.0 mi SSE 9.2 mph - N/A   Scattered Clouds